TimeCST,TemperatureF,Dew PointF,Humidity,Sea Level PressureIn,VisibilityMPH,Wind Direction,Wind SpeedMPH,Gust SpeedMPH,PrecipitationIn,Events,Conditions,WindDirDegrees,DateUTC
12:53 AM,54.0,52.0,93,30.24,10.0,Calm,Calm,-,N/A,,Clear,0,2012-12-04 06:53:00
1:53 AM,53.1,51.1,93,30.24,10.0,Calm,Calm,-,N/A,,Clear,0,2012-12-04 07:53:00
2:53 AM,53.1,52.0,96,30.24,8.0,Calm,Calm,-,N/A,,Clear,0,2012-12-04 08:53:00
3:06 AM,53.6,51.8,94,30.24,7.0,Calm,Calm,-,N/A,,Partly Cloudy,0,2012-12-04 09:06:00
3:32 AM,51.8,51.8,100,30.24,1.8,Calm,Calm,-,N/A,,Clear,0,2012-12-04 09:32:00
3:42 AM,53.6,51.8,94,30.24,4.0,Calm,Calm,-,N/A,,Clear,0,2012-12-04 09:42:00
3:53 AM,53.1,52.0,96,30.23,7.0,Calm,Calm,-,N/A,,Clear,0,2012-12-04 09:53:00
4:28 AM,51.8,51.8,100,30.24,2.0,Calm,Calm,-,N/A,,Scattered Clouds,0,2012-12-04 10:28:00
4:31 AM,51.8,51.8,100,30.24,1.0,Calm,Calm,-,N/A,,Mist,0,2012-12-04 10:31:00
4:38 AM,51.8,51.8,100,30.24,0.5,Calm,Calm,-,N/A,Fog,Fog,0,2012-12-04 10:38:00
4:45 AM,51.8,51.8,100,30.24,1.2,Calm,Calm,-,N/A,,Scattered Clouds,0,2012-12-04 10:45:00
4:48 AM,51.8,51.8,100,30.24,4.0,Calm,Calm,-,N/A,,Scattered Clouds,0,2012-12-04 10:48:00
4:53 AM,52.0,51.1,97,30.24,9.0,Calm,Calm,-,N/A,,Scattered Clouds,0,2012-12-04 10:53:00
5:53 AM,51.1,50.0,96,30.26,10.0,Calm,Calm,-,0.01,,Mostly Cloudy,0,2012-12-04 11:53:00
6:05 AM,51.8,51.8,100,30.27,1.5,Calm,Calm,-,N/A,,Overcast,0,2012-12-04 12:05:00
6:14 AM,51.8,51.8,100,30.27,0.5,Calm,Calm,-,N/A,Fog,Fog,0,2012-12-04 12:14:00
6:53 AM,51.1,51.1,100,30.28,0.2,Calm,Calm,-,N/A,Fog,Fog,0,2012-12-04 12:53:00
7:53 AM,55.9,55.9,100,30.29,1.0,Calm,Calm,-,N/A,,Overcast,0,2012-12-04 13:53:00
8:05 AM,57.2,55.4,94,30.30,3.0,ESE,3.5,-,N/A,,Overcast,120,2012-12-04 14:05:00
8:31 AM,59.0,57.2,94,30.30,10.0,Calm,Calm,-,N/A,,Mostly Cloudy,0,2012-12-04 14:31:00
8:53 AM,61.0,60.1,97,30.31,10.0,Variable,4.6,-,N/A,,Mostly Cloudy,0,2012-12-04 14:53:00
9:53 AM,72.0,62.1,71,30.31,10.0,South,6.9,16.1,N/A,,Scattered Clouds,170,2012-12-04 15:53:00
10:53 AM,75.0,57.9,55,30.29,10.0,Variable,3.5,-,N/A,,Mostly Cloudy,0,2012-12-04 16:53:00
11:53 AM,75.9,57.9,54,30.26,10.0,South,6.9,-,N/A,,Partly Cloudy,170,2012-12-04 17:53:00
12:53 PM,75.0,55.0,50,30.23,10.0,Calm,Calm,-,N/A,,Mostly Cloudy,0,2012-12-04 18:53:00
1:53 PM,75.9,53.1,45,30.22,10.0,SE,3.5,-,N/A,,Mostly Cloudy,130,2012-12-04 19:53:00
2:53 PM,75.9,54.0,46,30.21,10.0,Calm,Calm,-,N/A,,Mostly Cloudy,0,2012-12-04 20:53:00
3:53 PM,73.9,55.0,52,30.21,10.0,Calm,Calm,-,N/A,,Clear,0,2012-12-04 21:53:00
4:53 PM,69.1,57.0,65,30.21,10.0,Calm,Calm,-,N/A,,Scattered Clouds,0,2012-12-04 22:53:00
5:53 PM,64.9,59.0,81,30.21,10.0,Calm,Calm,-,N/A,,Scattered Clouds,0,2012-12-04 23:53:00
6:53 PM,63.0,57.9,84,30.22,10.0,Calm,Calm,-,N/A,,Clear,0,2012-12-05 00:53:00
7:53 PM,61.0,57.0,87,30.22,10.0,Calm,Calm,-,N/A,,Clear,0,2012-12-05 01:53:00
8:53 PM,60.1,57.0,90,30.22,10.0,Calm,Calm,-,N/A,,Clear,0,2012-12-05 02:53:00
9:53 PM,59.0,57.0,93,30.22,10.0,Calm,Calm,-,N/A,,Clear,0,2012-12-05 03:53:00
10:53 PM,57.0,55.0,93,30.21,10.0,Calm,Calm,-,N/A,,Clear,0,2012-12-05 04:53:00
11:53 PM,55.9,55.0,97,30.19,10.0,Calm,Calm,-,N/A,,Clear,0,2012-12-05 05:53:00